Regional Weather Roundup
Issued by NWS Albany, NY

Home | Current Version | Previous Version | Text Only | Print | Product List | Glossary On
Versions: 1 2 3 4 5 6 7 8 9 10 11 12 13 14 15 16 17 18 19 20 21 22 23 24 25 26 27 28 29 30 31 32 33 34 35 36 37 38 39 40 41 42 43 44 45 46 47 48 49 50
000
ASUS41 KALY 300010
RWRALY

NEW YORK STATE HOURLY WEATHER ROUNDUP
NATIONAL WEATHER SERVICE ALBANY NY
800 PM EDT FRI APR 29 2016

NOTE: "FAIR" INDICATES FEW OR NO CLOUDS BELOW 12,000 FEET WITH NO
SIGNIFICANT WEATHER AND/OR NO OBSTRUCTIONS TO VISIBILITY.

NYZ032-033-038>043-046>054-057>066-NYZ062>081-082-084-300100-
EAST


CITY           SKY/WX    TMP DP  RH WIND       PRES   REMARKS
ALBANY         CLOUDY    55  34  45 S6        30.07R
GLENS FALLS    CLOUDY    57  36  45 SW7       30.05R
POUGHKEEPSIE   CLOUDY    55  35  47 S3        30.08R
NEWBURGH       CLOUDY    52  37  58 VRB6      30.09R
MONTGOMERY     CLOUDY    49  43  80 CALM      30.08R
WHITE PLAINS   CLOUDY    49  35  58 E6        30.08S
ISLIP          CLOUDY    49  32  52 E9        30.11R
NEW YORK CITY  LGT RAIN  51  34  52 E6        30.09R
CENTRAL PARK   LGT RAIN  47  40  76 VRB5      30.11S
$$

NYZ005>009-017-018-044>046-055-056-300100-
CENTRAL


CITY           SKY/WX    TMP DP  RH WIND       PRES   REMARKS
FULTON         LGT RAIN  51  47  86 CALM      30.09R
SYRACUSE       CLOUDY    50  41  71 CALM      30.08R
ROME           CLOUDY    50  41  71 CALM      30.10R
ELMIRA         LGT RAIN  46  42  86 SE3       30.08R FOG
BINGHAMTON     LGT RAIN  42  41  96 SE3       30.07R
MONTICELLO     MOCLDY    43  36  75 S5        30.10R
$$

NYZ026>034-041>043-087-300100-
NORTH


CITY           SKY/WX    TMP DP  RH WIND       PRES   REMARKS
WATERTOWN      MOCLDY    53  25  33 N6        30.09R
FORT DRUM      NOT AVBL
MASSENA        CLOUDY    48  19  31 E5        30.11R
SARANAC LAKE   MOCLDY    45  20  36 NE8       30.05R
PLATTSBURGH    CLOUDY    50  18  28 N12       30.10R
$$

NYZ001>004-010>016-019>021-085-300100-
WEST


CITY           SKY/WX    TMP DP  RH WIND       PRES   REMARKS
NIAGARA FALLS  MOCLDY    50  31  48 VRB6      30.08R
BUFFALO        MOCLDY    47  33  58 NE7       30.07R
DUNKIRK        LGT RAIN  45  40  82 W5        30.10R
JAMESTOWN      CLOUDY    43  37  81 CALM      30.05R
WELLSVILLE     CLOUDY    43  41  93 E3        30.05R
ROCHESTER      CLOUDY    47  38  71 CALM      30.10R
PENN YAN       CLOUDY    46  44  93 CALM      30.08S
$$

             KEY
       WCI = WIND CHILL INDEX
       VSB = VISIBILITY
       HX  = HEAT INDEX
$$



USA.gov is the U.S. government's official web portal to all federal, state and local government web resources and services.